Location: St. Louis
(38.6270°N, 90.1994°W)
Time: 13:35:38
(UTC-06:00)

S-56A Canister/Altair - Pass Details

Date: 04 December 2021
Orbit: 633 x 2499 km, 38.9° (Epoch: 19 January)

Event Time Altitude Azimuth Distance (km) Brightness Sun altitude
Rises 05:13:26 0° 282° (WNW) 3,525 - -20.8°
Reaches altitude 10° 05:16:30 10° 273° (W) 2,364 - -20.2°
Exits shadow 05:20:02 28° 236° (SW) 1,306 8.3 -19.5°
Maximum altitude 05:21:05 31° 212° (SSW) 1,193 8.3 -19.3°
Drops below altitude 10° 05:25:02 10° 149° (SSE) 2,010 10.3 -18.6°
Sets 05:27:26 0° 138° (SE) 2,910 11.5 -18.1°
